sim
Sign-in with your pilot id or email,
or register
Callsign
Passwort

Schedule Details

Flight Number: RYR5000
Departure: Bologna Guglielmo Marconi Airport (LIPE) at 09:25
Arrival: Bratislava M. R. Stefanik Airport (LZIB) at 10:50
Route: Ryanair Passenger Schedule. Enter filed route here before submitting Pirep.

Weather Information
Getting current METAR information for LIPE 310520Z VRB02KT 9999 -RA SCT060 15/12 Q1016
Getting current METAR information for LZIB 310500Z 30007KT 9999 FEW047 BKN080 12/06 Q1015 NOSIG

Schedule Frequency

Route Map